Onatchiway, Quebec

1:03 PM AST on December 18, 2017 (GMT -0400)
Onatchiway

Weather History for CWXC - April, 2013

Change the Weather History Date:

Monday, April 29, 2013

  Actual Average (CYBG) Record (CYBG)
Temperature  
Mean Temperature 49 °F -  
Max Temperature 72 °F 51 °F 74 °F (2013)
Min Temperature 26 °F 31 °F 16 °F (2016)
Degree Days  
Heating Degree Days 16    
Moisture  
Dew Point 30 °F    
Average Humidity 53    
Maximum Humidity 92    
Minimum Humidity 14    
Precipitation  
Precipitation 0.00 in - - ()
Sea Level Pressure  
Sea Level Pressure 30.13 in    
Wind  
Wind Speed 3 mph ()    
Max Wind Speed 13 mph    
Max Gust Speed 20 mph    
Averages and records for this station are not official NWS values.
T = Trace of Precipitation, MM = Missing Value Source: Averaged Metar Reports

Daily Weather History Graph

Daily Weather History Graph

Search for Another Location

Airport or City:

Trip Planner

Search our weather history database for the weather conditions in past years. The results will help you decide how hot, cold, wet, or windy it might be!

Date:

Astronomy

Apr. 29, 2013 Rise Set
Actual Time 6:26 AM ADT 8:57 PM ADT
Civil Twilight 5:51 AM ADT 9:32 PM ADT
Nautical Twilight 5:07 AM ADT 10:17 PM ADT
Astronomical Twilight 4:15 AM ADT 11:09 PM ADT
Moon 12:32 AM ADT (4/29) 9:35 AM ADT (4/29)
Length of Visible Light 15h 41m
Length of Day
14h 30m
Waning Gibbous, 81% of the Moon is Illuminated
Apr 29
Waning Gibbous
May 2
Last Quarter
May 9
New
May 18
First Quarter
May 25
Full

Hourly Weather History & Observations

Time (ADT) Temp. Dew Point Humidity Pressure Visibility Wind Dir Wind Speed Gust Speed Precip Events Conditions
12:00 AM 34.0 °F 27.7 °F 78% 30.17 in - East 1.2 mph - N/A   Unknown
1:00 AM 31.6 °F 27.0 °F 83% 30.17 in - SW 1.2 mph - N/A   Unknown
2:00 AM 30.0 °F 26.6 °F 87% 30.17 in - ENE 1.2 mph - N/A   Unknown
3:00 AM 29 °F 26 °F 84% 30.17 in - NE 1.2 mph - -  
3:00 AM 28.8 °F 26.1 °F 90% 30.17 in - NE 1.2 mph - N/A   Unknown
4:00 AM 28.4 °F 25.7 °F 90% 30.17 in - ENE 1.2 mph - N/A   Unknown
5:00 AM 27.9 °F 25.0 °F 89% 30.17 in - North 1.2 mph - N/A   Unknown
6:00 AM 27.0 °F 24.8 °F 92% 30.17 in - NE 1.2 mph - N/A   Unknown
7:00 AM 27.1 °F 25.2 °F 92% 30.18 in - North 1.2 mph - N/A   Unknown
8:00 AM 31.3 °F 27.3 °F 85% 30.18 in - NNE 1.2 mph - N/A   Unknown
9:00 AM 40 °F 30 °F 58% 30.18 in - NNW 2.3 mph - -  
9:00 AM 40.1 °F 30.4 °F 68% 30.18 in - NNW 2.3 mph - N/A   Unknown
10:00 AM 46.0 °F 32.9 °F 60% 30.16 in - North 2.3 mph - N/A   Unknown
11:00 AM 55.0 °F 34.9 °F 47% 30.14 in - NNW 2.3 mph - N/A   Unknown
12:00 PM 67.8 °F 31.5 °F 26% 30.11 in - South 4.6 mph - N/A   Unknown
1:00 PM 69.1 °F 30.7 °F 24% 30.10 in - SSW 6.9 mph - N/A   Unknown
2:00 PM 70.7 °F 31.6 °F 24% 30.09 in - South 8.1 mph - N/A   Unknown
3:00 PM 71 °F 33 °F 14% 30.08 in - South 3.5 mph - -  
3:00 PM 71.2 °F 31.3 °F 23% 30.08 in - South 3.5 mph - N/A   Unknown
4:00 PM 68.9 °F 31.8 °F 25% 30.08 in - South 8.1 mph - N/A   Unknown
5:00 PM 69.8 °F 33.3 °F 26% 30.07 in - SSE 8.1 mph - N/A   Unknown
6:00 PM 68.0 °F 33.3 °F 28% 30.07 in - SSE 9.2 mph 19.6 mph N/A   Unknown
7:00 PM 66.0 °F 31.6 °F 28% 30.07 in - SSE 12.7 mph 19.6 mph N/A   Unknown
8:00 PM 63.3 °F 32.9 °F 32% 30.08 in - SE 6.9 mph - N/A   Unknown
9:00 PM 59 °F 32 °F 24% 30.09 in - SSE 9.2 mph - -  
9:00 PM 59.4 °F 31.8 °F 35% 30.09 in - SSE 9.2 mph - N/A   Unknown
10:00 PM 56.3 °F 31.6 °F 39% 30.12 in - South 3.5 mph - N/A   Unknown
11:00 PM 55.0 °F 31.1 °F 40% 30.12 in - South 2.3 mph - N/A   Unknown